Погода в Берёзовском

Россия / Кемеровская область (Кузбасс)     55°40′09″N   86°16′28″E
темп.,
°C
ветер,
м/с
пор.,
м/с
влажн.,
%
обл.,
%
осадки,
мм/ч
давл.,
гПа
погр.,
м
24 мая, вт
вт2401:00+10ююв11592 0.0 102311
04:00+8юв11715 0.0 102311
07:00+12юв116252 0.0 102371
10:00+19в23385 0.0 10221040
13:00+22св33280 0.0 10201481
16:00+24св45280 0.0 10181432
19:00+22св36370 0.0 1018833
22:00+15св31060100 0.0 1018180
25 мая, ср
ср2501:00+13св3106092 0.0 1018205
04:00+12ссв31060100 0.0 1017203
07:00+14св41160100 0.0 1017292
10:00+20св5947100 0.0 1016655
13:00+23св5733100 0.0 10161235
16:00+25св5729100 0.0 10161642
19:00+23ссв3743100 0.0 1015631
22:00+17св2965100 0.0 1016151
26 мая, чт
чт2601:00+15ссв3106959 0.0 1017204
04:00+14св312770 0.0 1017299
07:00+16св410755 0.0 1017342
10:00+20св57560 0.0 10171034
13:00+23св56410 0.0 10161524
16:00+23св56320 0.0 10141628
19:00+22св47375 0.0 10141362
22:00+14ссв311600 0.0 1014244
27 мая, пт
пт2701:00+12св3116614 0.0 1013231
04:00+11св3107145 0.0 1012224
07:00+13св4116071 0.0 1011336
10:00+19св583837 0.0 1010970
13:00+22св56290 0.0 10101608
16:00+23св56270 0.0 10091938
19:00+21ссв46330 0.0 10101582
22:00+15всв4116178 0.0 1012541
28 мая, сб
сб2801:00+12в312682 0.0 1013405
04:00+9всв4127699 0.0 1013277
07:00+11всв31069100 0.0 1014300
10:00+17всв5743100 0.0 1013953
13:00+21всв4532100 0.0 10121432
16:00+23св3429100 0.0 10111705
19:00+20св4742100 0.0 1011553
22:00+13св31064100 0.0 1012191